Location: Bremen
(53.0793°N, 8.8017°E)
Time: 17:56:07
(UTC+01:00)

ISS - Pass Details

Date: 16 November 2025
Orbit: 416 x 420 km, 51.6° (Epoch: 12 December)

Event Time Altitude Azimuth Distance (km) Brightness Sun altitude
Rises 18:56:12 0° 237° (WSW) 2,364 1.0 -22.0°
Reaches altitude 10° 18:58:21 10° 230° (SW) 1,500 -0.3 -22.3°
Enters shadow 19:00:29 30° 204° (SSW) 774 -2.2 -22.6°
